This is the latest recevied weather packets stored in our database for station/object VU35KB-13. If no packets are shown the sender has not sent any weather packets the latest 10 day(s).
| Time | Temp. | Humidity | Pressure | Rain* | Wind** | Luminosity | Snow |
|---|---|---|---|---|---|---|---|
| 1787648591 | 26.67° C | 75% | 908.6 hPa | - | - | - | - |
| 1787647687 | 26.67° C | 76% | 908.6 hPa | - | - | - | - |
| 1787646782 | 26.67° C | 77% | 908.7 hPa | - | - | - | - |
| 1787645879 | 26.67° C | 77% | 908.9 hPa | - | - | - | - |
| 1787644975 | 26.67° C | 78% | 908.9 hPa | - | - | - | - |
| 1787644071 | 26.11° C | 79% | 909.1 hPa | - | - | - | - |
| 1787643166 | 26.11° C | 78% | 909.3 hPa | - | - | - | - |
| 1787642263 | 25.56° C | 80% | 909.6 hPa | - | - | - | - |
| 1787641359 | 25.56° C | 79% | 909.8 hPa | - | - | - | - |
| 1787640455 | 25.56° C | 79% | 909.9 hPa | - | - | - | - |
| 1787639551 | 25.56° C | 79% | 909.9 hPa | - | - | - | - |
| 1787638646 | 26.11° C | 77% | 910.2 hPa | - | - | - | - |
| 1787637742 | 26.11° C | 77% | 910.3 hPa | - | - | - | - |
| 1787636838 | 25° C | 79% | 910.4 hPa | - | - | - | - |
| 1787635934 | 26.11° C | 81% | 910.5 hPa | - | - | - | - |
| 1787635030 | 26.11° C | 82% | 910.6 hPa | - | - | - | - |
| 1787634126 | 26.11° C | 80% | 910.8 hPa | - | - | - | - |
| 1787633222 | 26.11° C | 79% | 910.7 hPa | - | - | - | - |
| 1787632317 | 26.11° C | 79% | 910.8 hPa | - | - | - | - |
| 1787631414 | 25.56° C | 78% | 911 hPa | - | - | - | - |
| 1787630510 | 26.11° C | 78% | 911 hPa | - | - | - | - |
| 1787629605 | 26.11° C | 78% | 911.1 hPa | - | - | - | - |
| 1787628701 | 25.56° C | 79% | 911.1 hPa | - | - | - | - |
| 1787627797 | 26.11° C | 79% | 911.1 hPa | - | - | - | - |
| 1787626894 | 25.56° C | 81% | 911.1 hPa | - | - | - | - |
* Rain since midnight (hover to see other rain measurements)
** Current wind speed in m/s (hover to see current wind gust speed)